Location: Newark
(44.1667°N, 8.2500°E)
Time: 08:10:57
(UTC+00:00)

S-56A Canister/Altair - Pass Details

Date: 19 December 2019
Orbit: 634 x 2498 km, 38.9° (Epoch: 24 January)

Event Time Altitude Azimuth Distance (km) Brightness Sun altitude
Rises 13:15:08 0° 284° (WNW) 6,056 12.3 17.8°
Reaches altitude 10° 13:19:30 10° 277° (W) 5,133 12.1 17.4°
Maximum altitude 13:32:09 35° 220° (SW) 3,456 12.5 16.3°
Drops below altitude 10° 13:43:33 10° 162° (SSE) 4,598 12.2 15.3°
Sets 13:47:15 0° 153° (SSE) 5,370 12.3 14.9°
